Weather History for Cork, Ireland

Change the Weather History Date:

Sunday, March 9, 2014

  Actual Average Record
Temperature  
Mean Temperature 46 °F -  
Max Temperature 51 °F 50 °F 57 °F (2012)
Min Temperature 41 °F 39 °F 33 °F (2009)
Degree Days  
Heating Degree Days 19    
Moisture  
Dew Point 47 °F    
Average Humidity 98    
Maximum Humidity 100    
Minimum Humidity 93    
Precipitation  
Precipitation 0.00 in 0.12 in - ()
Sea Level Pressure  
Sea Level Pressure 30.04 in    
Wind  
Wind Speed 13 mph ()    
Max Wind Speed 18 mph    
Max Gust Speed -    
Visibility 6.3 miles    
Events Rain    
Averages and records for this station are not official NWS values.
T = Trace of Precipitation, MM = Missing Value Source: Averaged Metar Reports

Daily Weather History Graph

Daily Weather History Graph

Search for Another Location

Airport:

Trip Planner

Search our weather history database for the weather conditions in past years. The results will help you decide how hot, cold, wet, or windy it might be!

Date:

Astronomy

Mar. 09, 2014 Rise Set
Actual Time 7:02 AM GMT 6:27 PM GMT
Civil Twilight 6:28 AM GMT 7:01 PM GMT
Nautical Twilight 5:49 AM GMT 7:40 PM GMT
Astronomical Twilight 5:09 AM GMT 8:20 PM GMT
Moon 11:38 AM GMT (3/9) 2:47 AM GMT (3/9)
Length of Visible Light 12h 32m
Length of Day
11h 25m
First Quarter, 59% of the Moon is Illuminated
Mar 9
First Quarter
Mar 16
Full
Mar 24
Last Quarter
Mar 30
New
Apr 7
First Quarter

Hourly Weather History & Observations

Time (GMT) Temp. Windchill Dew Point Humidity Pressure Visibility Wind Dir Wind Speed Gust Speed Precip Events Conditions
12:00 AM 47 °F - 46 °F 97% 29.93 in 12 mi SSW 17.9 mph - - Rain Light Rain
12:00 AM 46.4 °F 39.5 °F 46.4 °F 100% 29.92 in 6.2 mi SSW 17.3 mph - N/A   Mostly Cloudy
12:30 AM 46.4 °F 40.1 °F 46.4 °F 100% 29.92 in 6.2 mi SSW 15.0 mph - N/A   Mostly Cloudy
1:00 AM 47 °F - 46 °F 97% 29.93 in 11 mi SSW 13.4 mph - -   Mostly Cloudy
1:00 AM 46.4 °F 40.4 °F 46.4 °F 100% 29.92 in 6.2 mi SSW 13.8 mph - N/A   Mostly Cloudy
1:30 AM 46.4 °F 40.1 °F 46.4 °F 100% 29.92 in 6.2 mi SSW 15.0 mph - N/A   Mostly Cloudy
2:00 AM 47 °F - 47 °F 98% 29.94 in 11 mi South 13.4 mph - -   Mostly Cloudy
2:00 AM 46.4 °F 40.4 °F 46.4 °F 100% 29.92 in 6.2 mi South 13.8 mph - N/A   Mostly Cloudy
2:30 AM 46.4 °F 40.7 °F 46.4 °F 100% 29.92 in 6.2 mi South 12.7 mph - N/A   Mostly Cloudy
3:00 AM 47 °F - 47 °F 99% 29.94 in 11 mi SSW 13.4 mph - -   Mostly Cloudy
3:00 AM 46.4 °F 40.7 °F 46.4 °F 100% 29.92 in 6.2 mi SSW 12.7 mph - N/A   Mostly Cloudy
3:30 AM 46.4 °F 40.7 °F 46.4 °F 100% 29.92 in 6.2 mi SSW 12.7 mph - N/A   Mostly Cloudy
4:00 AM 47 °F - 47 °F 98% 29.94 in 10 mi SSW 13.4 mph - - Rain Light Rain
4:00 AM 46.4 °F 40.7 °F 46.4 °F 100% 29.92 in 6.2 mi SSW 12.7 mph - N/A   Mostly Cloudy
4:30 AM 46.4 °F 41.5 °F 46.4 °F 100% 29.92 in 6.2 mi South 10.4 mph - N/A   Mostly Cloudy
5:00 AM 47 °F - 47 °F 98% 29.96 in 10 mi South 11.2 mph - - Rain Light Rain
5:00 AM 46.4 °F 41.5 °F 46.4 °F 100% 29.95 in 6.2 mi South 10.4 mph - N/A   Overcast
5:30 AM 48.2 °F - 46.4 °F 93% 29.95 in 6.2 mi South 11.5 mph - N/A   Overcast
6:00 AM 47 °F - 47 °F 100% 29.98 in 7 mi South 11.2 mph - - Rain Light Drizzle
6:00 AM 48.2 °F - 46.4 °F 93% 29.95 in 6.2 mi South 10.4 mph - N/A   Light Drizzle
6:30 AM 48.2 °F - 48.2 °F 100% 29.95 in 6.2 mi South 11.5 mph - N/A   Light Drizzle
7:00 AM 48 °F - 48 °F 98% 29.99 in 3 mi SSW 13.4 mph - - Rain Light Drizzle
7:00 AM 48.2 °F - 48.2 °F 100% 29.98 in 3.1 mi SSW 12.7 mph - N/A   Light Drizzle
7:30 AM 48.2 °F - 48.2 °F 100% 29.98 in 2.5 mi SSW 13.8 mph - N/A   Light Drizzle
8:00 AM 48 °F - 48 °F 100% 30.01 in 1 mi SSW 11.2 mph - - Rain Light Drizzle
8:00 AM 48.2 °F - 48.2 °F 100% 29.98 in 1.1 mi SSW 10.4 mph - N/A   Light Drizzle
8:30 AM 48.2 °F - 48.2 °F 100% 30.01 in 1.1 mi SSW 11.5 mph - N/A   Light Drizzle
9:00 AM 49 °F - 49 °F 98% 30.02 in 1 mi SSW 11.2 mph - - Rain Light Drizzle
9:00 AM 48.2 °F - 48.2 °F 100% 30.01 in 1.2 mi SSW 11.5 mph - N/A   Light Drizzle
9:30 AM 48.2 °F - 48.2 °F 100% 30.01 in 3.7 mi SSW 12.7 mph - N/A   Light Drizzle
10:00 AM 49 °F - 49 °F 99% 30.03 in 4 mi SSW 13.4 mph - - Rain Light Drizzle
10:00 AM 48.2 °F - 48.2 °F 100% 30.01 in 3.7 mi SSW 13.8 mph - N/A   Light Drizzle
10:30 AM 50.0 °F - 50.0 °F 100% 30.01 in 3.7 mi SSW 13.8 mph - N/A   Light Drizzle
11:00 AM 49 °F - 49 °F 99% 30.04 in 4 mi SSW 13.4 mph - - Rain Light Drizzle
11:00 AM 48.2 °F - 48.2 °F 100% 30.01 in 3.7 mi SSW 13.8 mph - N/A   Light Drizzle
11:30 AM 50.0 °F - 50.0 °F 100% 30.04 in 5.0 mi SSW 15.0 mph - N/A   Light Drizzle
12:00 PM 50 °F - 50 °F 99% 30.05 in 5 mi SSW 15.7 mph - - Rain Light Drizzle
12:00 PM 50.0 °F - 50.0 °F 100% 30.04 in 5.0 mi SSW 16.1 mph - N/A   Light Drizzle
12:30 PM 50.0 °F - 50.0 °F 100% 30.04 in 6.2 mi SSW 13.8 mph - N/A   Mostly Cloudy
1:00 PM 50 °F - 49 °F 96% 30.05 in 11 mi SSW 13.4 mph - - Rain Light Drizzle
1:00 PM 50.0 °F - 50.0 °F 100% 30.04 in 6.2 mi SSW 12.7 mph - N/A   Mostly Cloudy
1:30 PM 50.0 °F - 50.0 °F 100% 30.04 in 6.2 mi SSW 12.7 mph - N/A   Mostly Cloudy
2:00 PM 50 °F - 49 °F 96% 30.05 in 11 mi SSW 13.4 mph - -   Overcast
2:00 PM 50.0 °F - 50.0 °F 100% 30.04 in 6.2 mi SSW 12.7 mph - N/A   Mostly Cloudy
2:30 PM 50.0 °F - 48.2 °F 94% 30.04 in 6.2 mi South 11.5 mph - N/A   Overcast
3:00 PM 49 °F - 49 °F 99% 30.06 in 7 mi SSW 13.4 mph - -   Mist
3:00 PM 50.0 °F - 48.2 °F 94% 30.04 in 6.2 mi SSW 12.7 mph - N/A   Overcast
3:30 PM 50.0 °F - 48.2 °F 94% 30.04 in 6.2 mi SW 12.7 mph - N/A   Overcast
4:00 PM 49 °F - 49 °F 98% 30.08 in 7 mi SW 11.2 mph - -   Mist
4:00 PM 50.0 °F - 48.2 °F 94% 30.06 in 6.2 mi SW 11.5 mph - N/A   Overcast
4:30 PM 50.0 °F - 48.2 °F 94% 30.06 in 6.2 mi SSW 10.4 mph - N/A   Overcast
5:00 PM 49 °F - 49 °F 98% 30.09 in 6 mi SSW 11.2 mph - -   Mist
5:00 PM 50.0 °F - 48.2 °F 94% 30.06 in 5.6 mi SSW 11.5 mph - N/A   Overcast
5:30 PM 48.2 °F - 48.2 °F 100% 30.09 in 5.6 mi SSW 11.5 mph - N/A   Overcast
6:00 PM 49 °F - 48 °F 96% 30.12 in 6 mi SW 8.9 mph - -   Mist
6:00 PM 48.2 °F - 48.2 °F 100% 30.09 in 5.6 mi SW 9.2 mph - N/A   Overcast
6:30 PM 44.6 °F 38.4 °F 44.6 °F 100% 30.12 in 6.2 mi NNW 12.7 mph - N/A Rain Light Rain
7:00 PM 44 °F - 43 °F 97% 30.16 in 12 mi NNW 15.7 mph - - Rain Light Rain
7:00 PM 44.6 °F 37.8 °F 42.8 °F 93% 30.12 in 6.2 mi NNW 15.0 mph - N/A Rain Light Rain
7:30 PM 44.6 °F 37.4 °F 42.8 °F 93% 30.15 in 6.2 mi NNW 16.1 mph - N/A Rain Light Rain
8:00 PM 43 °F - 43 °F 99% 30.19 in 12 mi North 13.4 mph - - Rain Light Rain
8:00 PM 42.8 °F 35.8 °F 42.8 °F 100% 30.15 in 6.2 mi North 13.8 mph - N/A   Mostly Cloudy
8:30 PM 42.8 °F 35.4 °F 41.0 °F 93% 30.18 in 6.2 mi NNW 15.0 mph - N/A   Scattered Clouds
9:00 PM 42 °F - 41 °F 95% 30.21 in 19 mi North 15.7 mph - -   Partly Cloudy
9:00 PM 42.8 °F 35.4 °F 41.0 °F 93% 30.18 in 6.2 mi North 15.0 mph - N/A   Scattered Clouds
9:30 PM 42.8 °F 34.8 °F 41.0 °F 93% 30.21 in 6.2 mi NNW 17.3 mph - N/A   Scattered Clouds
10:00 PM 42 °F - 41 °F 94% 30.25 in 22 mi NNW 17.9 mph - -   Partly Cloudy
10:00 PM 41.0 °F 32.5 °F 41.0 °F 100% 30.21 in 6.2 mi NNW 17.3 mph - N/A   Mostly Cloudy
10:30 PM 41.0 °F 33.1 °F 41.0 °F 100% 30.24 in 6.2 mi NNW 15.0 mph - N/A   Mostly Cloudy
11:00 PM 42 °F - 41 °F 93% 30.27 in 22 mi North 15.7 mph - -   Scattered Clouds
11:00 PM 41.0 °F 32.8 °F 41.0 °F 100% 30.24 in 6.2 mi North 16.1 mph - N/A   Scattered Clouds
11:30 PM 41.0 °F 33.1 °F 41.0 °F 100% 30.24 in 6.2 mi North 15.0 mph - N/A   Scattered Clouds